User: anonymous   Login
Location: Unspecified
(0.0000°N, 0.0000°E)
Time: 22:43:09
(UTC+00:00)
Language:

STARLINK-32104 - Orbit

View from above orbital plane
View from above orbital plane
View from above satellite
View from above satellite

Ground track
Ground track

The orbit is defined by the following mean orbital elements,

1 59695U          26145.54711859 +.00000000 +00000-0 +59437-4 0 00007
2 59695  43.0049 342.5605 0001485 262.2431  97.8252 15.27576350    03
Epoch (UTC): 25 May 2026 13:07:51
Eccentricity: 0.0001485
inclination: 43.0049°
perigee height: 482 km
apogee height: 484 km
right ascension of ascending node: 342.5605°
argument of perigee: 262.2431°
revolutions per day: 15.27576350
mean anomaly at epoch: 97.8252°

The dashed part of the orbit path shows where the satellite is in the earth's shadow,  

DLR